TimeMDT,TemperatureF,Dew PointF,Humidity,Sea Level PressureIn,VisibilityMPH,Wind Direction,Wind SpeedMPH,Gust SpeedMPH,PrecipitationIn,Events,Conditions,WindDirDegrees,DateUTC
12:55 AM,37.4,21.2,52,29.66,25.0,SSE,3.5,-,N/A,,Scattered Clouds,150,2013-03-21 06:55:00
1:55 AM,37.4,21.2,52,29.62,25.0,South,6.9,-,N/A,,Scattered Clouds,190,2013-03-21 07:55:00
2:55 AM,37.4,21.2,52,29.60,25.0,SSW,5.8,-,N/A,,Scattered Clouds,200,2013-03-21 08:55:00
3:55 AM,35.6,21.2,56,29.60,25.0,South,8.1,-,N/A,,Scattered Clouds,180,2013-03-21 09:55:00
4:55 AM,35.6,21.2,56,29.58,25.0,South,6.9,-,N/A,,Mostly Cloudy,180,2013-03-21 10:55:00
5:55 AM,37.4,23.0,56,29.56,25.0,SSW,9.2,-,N/A,,Mostly Cloudy,200,2013-03-21 11:55:00
6:25 AM,-9999,-9999,N/A,29.63,-9999.0,North,-9999.0,-,N/A,,Unknown,0,2013-03-21 12:25:00
6:55 AM,37.4,23.0,56,29.57,70.0,South,10.4,-,N/A,,Mostly Cloudy,180,2013-03-21 12:55:00
7:55 AM,41.0,23.0,49,29.57,70.0,South,11.5,-,N/A,,Mostly Cloudy,180,2013-03-21 13:55:00
8:55 AM,44.6,23.0,43,29.55,70.0,South,3.5,-,N/A,,Overcast,180,2013-03-21 14:55:00
9:55 AM,46.4,23.0,40,29.53,25.0,SE,9.2,-,N/A,,Mostly Cloudy,140,2013-03-21 15:55:00
10:55 AM,51.8,28.4,41,29.49,70.0,South,15.0,-,N/A,,Mostly Cloudy,170,2013-03-21 16:55:00
11:55 AM,55.4,24.8,31,29.46,70.0,SSE,12.7,-,N/A,,Mostly Cloudy,160,2013-03-21 17:55:00
12:55 PM,57.2,21.2,25,29.42,70.0,South,5.8,-,N/A,,Mostly Cloudy,190,2013-03-21 18:55:00
1:55 PM,59.0,21.2,23,29.40,25.0,South,6.9,18.4,N/A,,Mostly Cloudy,180,2013-03-21 19:55:00
2:19 PM,55.4,21.2,26,29.53,7.0,NW,31.1,38.0,N/A,Rain,Light Rain Showers,310,2013-03-21 20:19:00
2:55 PM,50.0,28.4,43,29.51,7.0,NNW,25.3,32.2,N/A,,Overcast,340,2013-03-21 20:55:00
3:55 PM,46.4,32.0,57,29.55,7.0,NNW,11.5,-,N/A,,Mostly Cloudy,340,2013-03-21 21:55:00
4:55 PM,44.6,33.8,66,29.57,10.0,NNE,13.8,-,N/A,,Mostly Cloudy,20,2013-03-21 22:55:00
5:55 PM,44.6,32.0,61,29.62,10.0,NE,11.5,-,N/A,,Mostly Cloudy,50,2013-03-21 23:55:00
6:55 PM,42.8,28.4,57,29.68,10.0,North,8.1,-,N/A,,Scattered Clouds,10,2013-03-22 00:55:00
7:55 PM,39.2,14.0,36,29.70,10.0,NNW,13.8,20.7,N/A,,Scattered Clouds,330,2013-03-22 01:55:00
8:55 PM,39.2,8.6,28,29.69,10.0,NW,17.3,25.3,N/A,,Scattered Clouds,310,2013-03-22 02:55:00
9:55 PM,39.2,10.4,31,29.73,10.0,NW,10.4,-,N/A,,Scattered Clouds,310,2013-03-22 03:55:00
10:55 PM,32.0,12.2,44,29.76,10.0,East,3.5,-,N/A,,Partly Cloudy,90,2013-03-22 04:55:00
11:55 PM,32.0,12.2,44,29.76,10.0,South,2.3,-,N/A,,Partly Cloudy,180,2013-03-22 05:55:00